• In Uzbekistan
  • List of Countries
  • For 7 days
  • Water Temperature
  • Satellite Maps
  • Weather Map
  • Weather Widgets
  • user-avatar
    Login

    Hourly Weather Canillo

    Today, 21 January, Saturday

    Time Temperature Precipitation Wind Pressure Humidity
    00:00 -8°C° 0 mm 1 mps 616 mmHg 94%
    01:00 -8°C° 0.3 mm 1 mps 616 mmHg 93%
    02:00 -7°C° 0.3 mm 1 mps 616 mmHg 92%
    03:00 -8°C° 0.3 mm 2 mps 616 mmHg 92%
    04:00 -7°C° 0.4 mm 2 mps 616 mmHg 91%
    05:00 -7°C° 0.4 mm 2 mps 616 mmHg 91%
    06:00 -7°C° 0 mm 2 mps 616 mmHg 92%
    07:00 -6°C° 0.1 mm 2 mps 617 mmHg 89%
    08:00 -5°C° 0.1 mm 2 mps 617 mmHg 85%
    09:00 -4°C° 0.1 mm 2 mps 618 mmHg 82%
    10:00 -3°C° 0 mm 2 mps 618 mmHg 80%
    11:00 -2°C° 0 mm 2 mps 618 mmHg 77%
    12:00 -1°C° 0 mm 2 mps 618 mmHg 75%
    13:00 -1°C° 0 mm 2 mps 618 mmHg 76%
    14:00 -1°C° 0 mm 2 mps 618 mmHg 77%
    15:00 -1°C° 0 mm 2 mps 618 mmHg 79%
    16:00 -2°C° 0.1 mm 2 mps 617 mmHg 82%
    17:00 -4°C° 0.1 mm 2 mps 617 mmHg 85%
    18:00 -3°C° 0.1 mm 1 mps 616 mmHg 89%
    19:00 -5°C° 0 mm 2 mps 616 mmHg 88%
    20:00 -5°C° 0 mm 2 mps 616 mmHg 87%
    21:00 -5°C° 0 mm 2 mps 616 mmHg 86%
    22:00 -5°C° 0 mm 2 mps 616 mmHg 86%
    23:00 -5°C° 0 mm 2 mps 616 mmHg 85%

    Tomorrow, 22 January, Sunday

    Time Temperature Precipitation Wind Pressure Humidity
    00:00 -6°C° 0 mm 2 mps 616 mmHg 84%
    01:00 -6°C° 0.1 mm 2 mps 616 mmHg 84%
    02:00 -6°C° 0.1 mm 2 mps 616 mmHg 84%
    03:00 -6°C° 0.1 mm 2 mps 615 mmHg 83%
    04:00 -6°C° 0.2 mm 2 mps 615 mmHg 83%
    05:00 -6°C° 0.2 mm 2 mps 615 mmHg 82%
    06:00 -6°C° 0.2 mm 2 mps 615 mmHg 82%
    07:00 -5°C° 0.3 mm 2 mps 616 mmHg 81%
    08:00 -5°C° 0.3 mm 2 mps 616 mmHg 81%
    09:00 -4°C° 0.3 mm 2 mps 617 mmHg 80%
    10:00 -4°C° 0.4 mm 2 mps 617 mmHg 79%
    11:00 -3°C° 0.4 mm 2 mps 617 mmHg 78%
    12:00 -2°C° 0.4 mm 2 mps 617 mmHg 77%
    13:00 -2°C° 0.4 mm 2 mps 617 mmHg 78%
    14:00 -2°C° 0.4 mm 2 mps 617 mmHg 79%
    15:00 -2°C° 0.4 mm 2 mps 617 mmHg 80%
    16:00 -1°C° 0.3 mm 1 mps 616 mmHg 84%
    17:00 -3°C° 0.3 mm 1 mps 616 mmHg 88%
    18:00 -4°C° 0.3 mm 1 mps 615 mmHg 92%
    19:00 -4°C° 0.2 mm 1 mps 616 mmHg 92%
    20:00 -4°C° 0.2 mm 1 mps 616 mmHg 92%
    21:00 -4°C° 0.2 mm 1 mps 616 mmHg 93%
    22:00 -4°C° 0.1 mm 1 mps 615 mmHg 92%
    23:00 -6°C° 0.1 mm 1 mps 615 mmHg 92%

    Day after tomorrow, 23 January, Monday

    Time Temperature Precipitation Wind Pressure Humidity
    00:00 -7°C° 0.1 mm 2 mps 615 mmHg 92%
    01:00 -7°C° 0.2 mm 2 mps 615 mmHg 92%
    02:00 -7°C° 0.2 mm 2 mps 615 mmHg 92%
    03:00 -7°C° 0.2 mm 2 mps 615 mmHg 92%
    04:00 -7°C° 0.2 mm 2 mps 615 mmHg 91%
    05:00 -6°C° 0.2 mm 2 mps 615 mmHg 91%
    06:00 -6°C° 0.2 mm 2 mps 615 mmHg 90%
    07:00 -6°C° 0.3 mm 2 mps 616 mmHg 89%
    08:00 -5°C° 0.3 mm 2 mps 616 mmHg 87%
    09:00 -4°C° 0.3 mm 2 mps 617 mmHg 85%
    10:00 -4°C° 0.3 mm 2 mps 617 mmHg 84%
    11:00 -3°C° 0.3 mm 2 mps 617 mmHg 82%
    12:00 -2°C° 0.3 mm 2 mps 617 mmHg 81%
    13:00 -2°C° 0.4 mm 2 mps 617 mmHg 82%
    14:00 -3°C° 0.4 mm 2 mps 617 mmHg 83%
    15:00 -3°C° 0.4 mm 2 mps 617 mmHg 85%
    16:00 -4°C° 0.1 mm 2 mps 616 mmHg 88%
    17:00 -5°C° 0.1 mm 2 mps 616 mmHg 90%
    18:00 -6°C° 0.1 mm 2 mps 616 mmHg 93%
    19:00 -7°C° 0 mm 3 mps 616 mmHg 93%
    20:00 -8°C° 0 mm 3 mps 616 mmHg 92%
    21:00 -8°C° 0 mm 3 mps 616 mmHg 91%
    22:00 -8°C° 0 mm 3 mps 616 mmHg 89%
    23:00 -9°C° 0 mm 3 mps 615 mmHg 87%

    24 January, Tuesday

    Time Temperature Precipitation Wind Pressure Humidity
    00:00 -9°C° 0 mm 3 mps 615 mmHg 84%
    01:00 -9°C° 0 mm 3 mps 615 mmHg 82%
    02:00 -9°C° 0 mm 3 mps 615 mmHg 80%
    03:00 -10°C° 0 mm 3 mps 615 mmHg 78%
    04:00 -10°C° 0 mm 3 mps 615 mmHg 76%
    05:00 -10°C° 0 mm 3 mps 615 mmHg 74%
    06:00 -12°C° 0 mm 3 mps 615 mmHg 71%
    07:00 -10°C° 0 mm 3 mps 615 mmHg 69%
    08:00 -9°C° 0 mm 3 mps 616 mmHg 67%
    09:00 -8°C° 0 mm 3 mps 617 mmHg 64%
    10:00 -6°C° 0 mm 3 mps 618 mmHg 64%
    11:00 -5°C° 0 mm 3 mps 618 mmHg 63%
    12:00 -2°C° 0 mm 3 mps 619 mmHg 62%
    13:00 -4°C° 0 mm 3 mps 618 mmHg 64%
    14:00 -4°C° 0 mm 3 mps 618 mmHg 65%
    15:00 -4°C° 0 mm 3 mps 618 mmHg 67%
    16:00 -6°C° 0 mm 3 mps 617 mmHg 71%
    17:00 -9°C° 0 mm 3 mps 617 mmHg 76%
    18:00 -12°C° 0 mm 3 mps 616 mmHg 80%
    19:00 -12°C° 0 mm 3 mps 616 mmHg 79%
    20:00 -12°C° 0 mm 3 mps 616 mmHg 78%
    21:00 -12°C° 0 mm 3 mps 616 mmHg 77%
    22:00 -10°C° 0 mm 2 mps 616 mmHg 77%
    23:00 -12°C° 0 mm 2 mps 616 mmHg 77%

    25 January, Wednesday

    Time Temperature Precipitation Wind Pressure Humidity
    00:00 -12°C° 0 mm 2 mps 616 mmHg 77%
    01:00 -12°C° 0 mm 2 mps 616 mmHg 78%
    02:00 -12°C° 0 mm 2 mps 616 mmHg 79%
    03:00 -13°C° 0 mm 2 mps 615 mmHg 80%
    04:00 -13°C° 0 mm 2 mps 616 mmHg 81%
    05:00 -13°C° 0 mm 2 mps 616 mmHg 81%
    06:00 -11°C° 0 mm 1 mps 616 mmHg 81%
    07:00 -9°C° 0 mm 1 mps 617 mmHg 79%
    08:00 -7°C° 0 mm 1 mps 618 mmHg 76%
    09:00 -4°C° 0 mm 1 mps 619 mmHg 74%
    10:00 -3°C° 0 mm 1 mps 619 mmHg 72%
    11:00 -1°C° 0 mm 1 mps 620 mmHg 70%
    12:00 0°C° 0 mm 1 mps 620 mmHg 68%
    13:00 0°C° 0 mm 1 mps 620 mmHg 69%
    14:00 0°C° 0 mm 1 mps 620 mmHg 70%
    15:00 0°C° 0 mm 1 mps 620 mmHg 72%
    16:00 -4°C° 0 mm 1 mps 618 mmHg 79%
    17:00 -8°C° 0 mm 1 mps 617 mmHg 87%
    18:00 -12°C° 0 mm 1 mps 615 mmHg 94%
    19:00 -12°C° 0 mm 1 mps 616 mmHg 93%
    20:00 -11°C° 0 mm 1 mps 616 mmHg 93%
    21:00 -11°C° 0 mm 1 mps 616 mmHg 92%
    22:00 -11°C° 0 mm 1 mps 616 mmHg 91%
    23:00 -11°C° 0 mm 1 mps 616 mmHg 89%

    26 January, Thursday

    Time Temperature Precipitation Wind Pressure Humidity
    00:00 -11°C° 0 mm 1 mps 616 mmHg 87%
    01:00 -11°C° 0 mm 1 mps 616 mmHg 84%
    02:00 -11°C° 0 mm 1 mps 616 mmHg 82%
    03:00 -11°C° 0 mm 1 mps 616 mmHg 79%
    04:00 -11°C° 0 mm 1 mps 616 mmHg 77%
    05:00 -11°C° 0 mm 1 mps 616 mmHg 75%
    06:00 -11°C° 0 mm 1 mps 616 mmHg 73%
    07:00 -9°C° 0 mm 1 mps 618 mmHg 70%
    08:00 -6°C° 0 mm 1 mps 619 mmHg 66%
    09:00 -3°C° 0 mm 1 mps 621 mmHg 63%
    10:00 -1°C° 0 mm 1 mps 621 mmHg 62%
    11:00 -2°C° 0 mm 2 mps 622 mmHg 61%
    12:00 +1°C° 0 mm 2 mps 622 mmHg 60%
    13:00 +1°C° 0 mm 2 mps 622 mmHg 62%
    14:00 +1°C° 0 mm 2 mps 622 mmHg 65%
    15:00 +1°C° 0 mm 2 mps 622 mmHg 68%
    16:00 -4°C° 0 mm 2 mps 620 mmHg 72%
    17:00 -7°C° 0 mm 2 mps 619 mmHg 77%
    18:00 -9°C° 0 mm 1 mps 618 mmHg 82%
    19:00 -10°C° 0 mm 2 mps 618 mmHg 79%
    20:00 -12°C° 0 mm 2 mps 618 mmHg 77%
    21:00 -12°C° 0 mm 2 mps 618 mmHg 75%
    22:00 -12°C° 0 mm 2 mps 618 mmHg 74%
    23:00 -12°C° 0 mm 2 mps 618 mmHg 73%
    Show more